Hourly Data Report for August 09, 2015

All times are specified in Local Standard Time (LST). Add 1 hour to adjust for Daylight Saving Time where and when it is observed.

TORONTO INTL A
ONTARIO

43°40'36.000" N
79°37'50.000" W
173.40 m
6158731
71624
YYZ

Download Data

Hourly Data (August 2015)
Hourly Data Report for August 9, 2015
Temp Definition
°C
Dew Point Temp Definition
°C
Rel Hum Definition
%
Wind Dir Definition
10's deg

Wind Spd Definition
km/h
Visibility Definition
km
Stn Press Definition
kPa
Hmdx Definition


Wind Chill Definition


Weather Definition


TIME
00:00 Legend Double Dagger 17.8 13.2 74 4 5 24.1 99.76     LegendNANA
01:00 Legend Double Dagger 16.3 12.5 78 2 9 24.1 99.76     Clear
02:00 Legend Double Dagger 15.7 11.9 78 2 8 24.1 99.73     LegendNANA
03:00 Legend Double Dagger 14.8 11.4 80 2 9 24.1 99.74     LegendNANA
04:00 Legend Double Dagger 14.2 11.4 83 34 5 24.1 99.75     Clear
05:00 Legend Double Dagger 13.6 11.2 85 1 5 24.1 99.79     LegendNANA
06:00 Legend Double Dagger 14.9 11.9 82 2 13 24.1 99.78     LegendNANA
07:00 Legend Double Dagger 17.6 13.4 76 2 8 24.1 99.78     Clear
08:00 Legend Double Dagger 20.3 13.1 63 6 10 24.1 99.77     LegendNANA
09:00 Legend Double Dagger 21.9 12.3 54 8 17 24.1 99.75     LegendNANA
10:00 Legend Double Dagger 23.1 11.7 48 5 13 24.1 99.74 25   Mainly Clear
11:00 Legend Double Dagger 23.7 13.4 52 15 18 24.1 99.66 27   LegendNANA
12:00 Legend Double Dagger 23.4 12.9 51 14 20 24.1 99.70 26   LegendNANA
13:00 Legend Double Dagger 23.2 12.1 49 14 18 24.1 99.71 26   Mainly Clear
14:00 Legend Double Dagger 23.5 11.7 47 13 15 24.1 99.69 26   LegendNANA
15:00 Legend Double Dagger 23.6 11.5 46 11 16 24.1 99.65 26   LegendNANA
16:00 Legend Double Dagger 24.2 11.4 44 16 16 24.1 99.61 26   Mainly Clear
17:00 Legend Double Dagger 23.6 11.5 46 15 15 24.1 99.59 26   LegendNANA
18:00 Legend Double Dagger 23.0 11.3 47 14 15 24.1 99.55 25   LegendNANA
19:00 Legend Double Dagger 22.2 11.1 49 14 10 24.1 99.51     Mainly Clear
20:00 Legend Double Dagger 21.2 10.5 50 36 2 24.1 99.54     LegendNANA
21:00 Legend Double Dagger 20.7 10.3 51 36 2 24.1 99.55     LegendNANA
22:00 Legend Double Dagger 20.2 10.2 52 11 7 24.1 99.54     Mainly Clear
23:00 Legend Double Dagger 19.5 10.6 56 20 4 24.1 99.53     LegendNANA

Notes on Data Quality.

Legend

  • E = Estimated
  • M = Missing
  • NA = Not Available
  • ‡ = Partner data that is not subject to review by the National Climate Archives
Date modified: